Location: Alafon
(8.4500°N, 4.2333°E)
Time: 16:41:05
(UTC+00:00)

Transit 2A - Pass Details

Date: 05 August 2021
Orbit: 595 x 964 km, 66.7° (Epoch: 18 September)

Event Time Altitude Azimuth Distance (km) Brightness Sun altitude
Rises 15:13:25 0° 335° (NNW) 3,496 9.9 39.6°
Reaches altitude 10° 15:15:53 10° 332° (NNW) 2,596 9.4 39.0°
Maximum altitude 15:21:57 67° 251° (WSW) 1,022 7.8 37.5°
Drops below altitude 10° 15:28:16 10° 169° (S) 2,693 8.7 36.0°
Sets 15:30:51 0° 166° (SSE) 3,634 9.3 35.4°
